TimeEDT,TemperatureF,Dew PointF,Humidity,Sea Level PressureIn,VisibilityMPH,Wind Direction,Wind SpeedMPH,Gust SpeedMPH,PrecipitationIn,Events,Conditions,WindDirDegrees,DateUTC
12:15 AM,46.4,33.8,62,29.99,10.0,SSE,10.4,-,N/A,,Overcast,160,2013-05-15 04:15:00
12:35 AM,46.4,33.8,62,29.97,10.0,SSE,10.4,-,N/A,,Mostly Cloudy,160,2013-05-15 04:35:00
12:55 AM,48.2,33.8,58,29.96,10.0,South,10.4,-,N/A,,Mostly Cloudy,170,2013-05-15 04:55:00
1:15 AM,46.4,33.8,62,29.95,10.0,South,10.4,-,N/A,,Scattered Clouds,170,2013-05-15 05:15:00
1:35 AM,46.4,33.8,62,29.95,10.0,South,9.2,-,N/A,,Scattered Clouds,170,2013-05-15 05:35:00
1:55 AM,48.2,33.8,58,29.95,10.0,South,10.4,-,N/A,,Scattered Clouds,180,2013-05-15 05:55:00
2:15 AM,50.0,33.8,54,29.95,10.0,SSW,9.2,-,N/A,,Mostly Cloudy,200,2013-05-15 06:15:00
2:35 AM,51.8,35.6,54,29.95,10.0,SSW,11.5,-,N/A,,Mostly Cloudy,210,2013-05-15 06:35:00
2:55 AM,53.6,37.4,54,29.94,10.0,SW,10.4,17.3,N/A,,Scattered Clouds,220,2013-05-15 06:55:00
3:15 AM,53.6,39.2,58,29.94,10.0,SW,11.5,17.3,N/A,,Scattered Clouds,230,2013-05-15 07:15:00
3:35 AM,53.6,41.0,62,29.94,10.0,SW,11.5,-,N/A,,Mostly Cloudy,230,2013-05-15 07:35:00
3:55 AM,55.4,42.8,63,29.94,10.0,SW,10.4,18.4,N/A,,Scattered Clouds,230,2013-05-15 07:55:00
4:15 AM,55.4,44.6,67,29.95,10.0,WSW,10.4,16.1,N/A,,Mostly Cloudy,240,2013-05-15 08:15:00
4:35 AM,57.2,46.4,67,29.94,10.0,WSW,12.7,19.6,N/A,,Mostly Cloudy,240,2013-05-15 08:35:00
5:00 AM,59.0,48.2,67,29.94,10.0,WSW,15.0,23.0,N/A,,Mostly Cloudy,240,2013-05-15 09:00:00
5:20 AM,59.0,50.0,72,29.94,10.0,WSW,15.0,25.3,N/A,,Mostly Cloudy,250,2013-05-15 09:20:00
5:40 AM,57.2,53.6,88,29.95,10.0,WSW,11.5,24.2,N/A,,Overcast,250,2013-05-15 09:40:00
6:00 AM,57.2,51.8,82,29.95,10.0,WSW,13.8,19.6,N/A,,Scattered Clouds,250,2013-05-15 10:00:00
6:20 AM,59.0,51.8,77,29.94,10.0,WSW,13.8,19.6,N/A,,Clear,240,2013-05-15 10:20:00
6:40 AM,59.0,51.8,77,29.94,10.0,SW,15.0,24.2,N/A,,Clear,230,2013-05-15 10:40:00
7:00 AM,59.0,51.8,77,29.94,10.0,SW,11.5,20.7,N/A,,Clear,230,2013-05-15 11:00:00
7:20 AM,60.8,53.6,77,29.95,10.0,SW,11.5,21.9,N/A,,Clear,230,2013-05-15 11:20:00
7:40 AM,60.8,53.6,77,29.95,10.0,SW,10.4,23.0,N/A,,Clear,230,2013-05-15 11:40:00
8:00 AM,60.8,53.6,77,29.95,10.0,SW,13.8,19.6,N/A,,Scattered Clouds,220,2013-05-15 12:00:00
8:20 AM,62.6,53.6,72,29.95,10.0,SW,15.0,21.9,N/A,,Clear,220,2013-05-15 12:20:00
8:40 AM,62.6,53.6,72,29.97,10.0,WSW,11.5,21.9,N/A,,Clear,240,2013-05-15 12:40:00
9:00 AM,62.6,53.6,72,29.96,10.0,SW,12.7,20.7,N/A,,Clear,230,2013-05-15 13:00:00
9:20 AM,64.4,53.6,68,29.96,10.0,WSW,13.8,24.2,N/A,,Clear,250,2013-05-15 13:20:00
9:40 AM,66.2,53.6,64,29.95,10.0,WSW,16.1,21.9,N/A,,Clear,240,2013-05-15 13:40:00
10:00 AM,68.0,53.6,60,29.94,10.0,WSW,15.0,26.5,N/A,,Clear,240,2013-05-15 14:00:00
10:20 AM,68.0,53.6,60,29.94,10.0,SW,17.3,26.5,N/A,,Clear,230,2013-05-15 14:20:00
10:40 AM,68.0,53.6,60,29.94,10.0,SW,10.4,26.5,N/A,,Clear,230,2013-05-15 14:40:00
11:00 AM,68.0,53.6,60,29.93,10.0,WSW,15.0,26.5,N/A,,Clear,240,2013-05-15 15:00:00
11:20 AM,69.8,51.8,53,29.93,10.0,WSW,13.8,25.3,N/A,,Clear,250,2013-05-15 15:20:00
11:40 AM,69.8,51.8,53,29.92,10.0,WSW,11.5,26.5,N/A,,Clear,240,2013-05-15 15:40:00
12:00 PM,71.6,51.8,50,29.92,10.0,SW,11.5,21.9,N/A,,Scattered Clouds,230,2013-05-15 16:00:00
12:20 PM,71.6,51.8,50,29.92,10.0,WSW,15.0,23.0,N/A,,Scattered Clouds,250,2013-05-15 16:20:00
12:40 PM,69.8,51.8,53,29.93,10.0,WSW,16.1,25.3,N/A,,Clear,240,2013-05-15 16:40:00
1:00 PM,71.6,53.6,53,29.94,10.0,West,11.5,21.9,N/A,,Clear,260,2013-05-15 17:00:00
1:20 PM,73.4,53.6,50,29.93,10.0,WSW,13.8,25.3,N/A,,Clear,240,2013-05-15 17:20:00
1:40 PM,73.4,53.6,50,29.92,10.0,WSW,12.7,19.6,N/A,,Clear,250,2013-05-15 17:40:00
2:00 PM,75.2,51.8,44,29.91,10.0,WSW,17.3,25.3,N/A,,Clear,250,2013-05-15 18:00:00
2:20 PM,75.2,51.8,44,29.90,10.0,WSW,15.0,27.6,N/A,,Clear,250,2013-05-15 18:20:00
2:40 PM,77.0,51.8,41,29.89,10.0,WSW,15.0,28.8,N/A,,Clear,240,2013-05-15 18:40:00
3:00 PM,77.0,50.0,39,29.88,10.0,WSW,19.6,27.6,N/A,,Clear,250,2013-05-15 19:00:00
3:20 PM,78.8,50.0,36,29.87,10.0,WSW,18.4,27.6,N/A,,Clear,240,2013-05-15 19:20:00
3:40 PM,78.8,48.2,34,29.86,10.0,WSW,13.8,25.3,N/A,,Clear,250,2013-05-15 19:40:00
6:20 PM,77.0,50.0,39,29.85,10.0,West,18.4,29.9,N/A,,Clear,260,2013-05-15 22:20:00
7:00 PM,77.0,50.0,39,29.86,10.0,WSW,17.3,25.3,N/A,,Scattered Clouds,250,2013-05-15 23:00:00
7:20 PM,75.2,50.0,41,29.86,10.0,West,13.8,21.9,N/A,,Scattered Clouds,260,2013-05-15 23:20:00
7:40 PM,73.4,50.0,44,29.88,10.0,West,12.7,25.3,N/A,,Scattered Clouds,260,2013-05-15 23:40:00
8:00 PM,73.4,50.0,44,29.88,10.0,West,13.8,18.4,N/A,,Mostly Cloudy,260,2013-05-16 00:00:00
8:20 PM,73.4,50.0,44,29.88,10.0,West,17.3,29.9,N/A,,Scattered Clouds,270,2013-05-16 00:20:00
8:40 PM,71.6,50.0,46,29.89,10.0,West,15.0,25.3,N/A,,Scattered Clouds,260,2013-05-16 00:40:00
9:00 PM,71.6,50.0,46,29.90,10.0,West,13.8,23.0,N/A,,Scattered Clouds,260,2013-05-16 01:00:00
9:20 PM,71.6,50.0,46,29.90,10.0,West,17.3,28.8,N/A,,Clear,260,2013-05-16 01:20:00
10:00 PM,69.8,50.0,49,29.92,10.0,WSW,16.1,21.9,N/A,,Clear,250,2013-05-16 02:00:00
10:20 PM,69.8,50.0,49,29.92,10.0,West,17.3,23.0,N/A,,Scattered Clouds,260,2013-05-16 02:20:00
10:40 PM,69.8,51.8,53,29.92,10.0,WSW,16.1,21.9,N/A,,Scattered Clouds,250,2013-05-16 02:40:00
11:00 PM,69.8,51.8,53,29.92,10.0,WSW,12.7,25.3,N/A,,Scattered Clouds,250,2013-05-16 03:00:00
11:20 PM,69.8,48.2,46,29.92,10.0,WSW,18.4,28.8,N/A,,Mostly Cloudy,250,2013-05-16 03:20:00
11:40 PM,69.8,46.4,43,29.92,10.0,WSW,15.0,26.5,N/A,,Mostly Cloudy,250,2013-05-16 03:40:00